Location: Caltech
(34.1382°N, 118.1253°W)
Time: 19:11:46
(UTC-07:00)

Transit 2A - Visible Passes

Search period start: 27 August 2016 00:00
Search period end: 06 September 2016 00:00
Orbit: 592 x 968 km, 66.7° (Epoch: 26 August)

Date Brightness Start Highest point End Pass type
(mag) Time Alt. Az. Time Alt. Az. Time Alt. Az.
27 Aug 8.6 19:48:45 10° WNW 19:52:58 21° WSW 19:56:53 10° SSW visible
02 Sep 9.6 05:54:28 10° ESE 05:55:51 11° E 05:57:15 10° E visible
05 Sep 8.6 05:51:27 10° SSE 05:56:32 28° ESE 06:01:51 10° NE visible
